User: anonymous   Login
Location: Newark
(50.0953°N, 2.1719°E)
Time: 06:42:22
(UTC+00:00)
Language:

N. Korean satellite - Orbit

View from above orbital plane
View from above orbital plane
View from above satellite
View from above satellite

Ground track
Ground track

The orbit data is extracted from the following two-line orbital elements,

1 39026U 12072A   20058.80521439 +.00000626 +00000-0 +24940-4 0  9996
2 39026 097.2204 058.9169 0035778 278.1325 081.5857 15.28358357400344
Epoch (UTC): 27 February 2020 19:19:30
Eccentricity: 0.0035778
inclination: 97.2204°
perigee height: 456 km
apogee height: 505 km
right ascension of ascending node: 58.9169°
argument of perigee: 278.1325°
revolutions per day: 15.28358357
mean anomaly at epoch: 81.5857°
orbit number at epoch: 40034

The dashed part of the orbit path shows where the satellite is in the earth's shadow,  

DLR